WESTFORD NEEDLES, 2949

Orbit data source: Space-Track

WESTFORD NEEDLES, 2949 is space debris in LEO originally from a launch on Thu, 09 May 1963 UTC launched from the Air Force Western Test Range (AFWTR). Debris objects in space refer to the collection of defunct objects orbiting the Earth. Examples of debris include non-operational satellites, rocket bodies, and fragments generated from explosions, collisions, or faulty payload assembly.

Loading next visibility...
Identifier
2949, 1963-014AS
Orbit
LEO
Last TLE update
2 days ago
Origin
Manufacturer
Unknown
Mission
Spacecraft
Bus & Motor
Unknown
Mass
Unknown
Launch date (UTC)
1963-05-09 (62 years ago)
Launch vehicle
Unknown
Launch site
Air Force Western Test Range (AFWTR)
Object type
Payload
Rocket body
Debris
Shape & HBR
Unknown
Radar Cross Section
Medium (>0.1 m² and <1 m²)

Expand to show TLE details & history

TLE from 2 days ago
0 WESTFORD NEEDLES
1 02949U 63014AS  25185.18097152  .00009329  00000-0  25399+0 0  9992
2 02949  85.5690  64.3687 2216944 133.8969  20.6923  8.84301102365014
Epoch: 2025-07-04T04:20Z
TLE epoch observation values (Epoch: 2025-07-04T04:20:35.939Z)
Latitude
13.37501°
Longitude
-104.26854°
Altitude
1,538.22 km
Speed
7.771 km/s
True Right ascension
16h 13m 16s
True Declination
13° 18' 20"
Sunlit
Object was in partial shadow at epoch
Visualization orbit readout
Latitude
-43.24678°
Longitude
72.29356°
Altitude
5,693.754 km
Speed
5.073 km/s
Apparent Right ascension
02h 06m 49s
Apparent Declination
-49° 57' 28"
Sunlit
Object is in daylight
Visualization observer readout
Local Sidereal Time
10:14:45
Azimuth
235.968° WSW
Elevation
-48.817°
Doppler factor
1
Orbital elements
Apogee altitude
5,686.866 km
Perigee altitude
1,308.122 km
Semi-major axis
9,875.631 km
Eccentricity
0.22169
Inclination
85.569°
RAAN
64.3687°
Arg. of periapsis
133.8969°
True anomaly
Unknown
Mean anomaly
20.6923°
Eccentric anomaly
Unknown
Mean motion
2.21155 °/min
Orbital period
162.78 mins
BSTAR
0.25399
Loading maneuver chart data...
Loading SW <> Apogee altitude chart data...

WESTFORD NEEDLES Visibility forecast

Observer location: undefined°, undefined°

Span
Click to sort rows by Start time (UTC) header in descending order
Start Az.
Max El. time (UTC)
Max El. Az.
Max El.
End time (UTC)
End Az.
9 mins2025-07-06 02:16:35.802Z31.464° NE2025-07-06 02:20:35.802Z68.949° E18.25°2025-07-06 02:25:35.802Z113.432° SE
12 mins2025-07-06 04:59:35.802Z333.865° NNW2025-07-06 05:04:35.802Z276.131° WNW30.965°2025-07-06 05:11:35.802Z211.928° SW
30 mins2025-07-06 15:04:35.802Z152.479° SSE2025-07-06 15:23:35.802Z87.781° E38.633°2025-07-06 15:34:35.802Z16.042° NNE
29 mins2025-07-06 17:48:35.802Z215.148° SW2025-07-06 18:06:35.802Z276.294° WNW33.212°2025-07-06 18:17:35.802Z345.617° N
|